Neuburg — 5BQJ2 — position and weather

sailwx.info

Track history (hours):
 
Tides and Currents Weather Stations Pressure Air Temp Water Temp Dewpoint Dewpoint Depression Visibility Wind Speed Wind Dir Waves Ship Positions

Neuburg

Last reported at 2014-Oct-19 21:32 UTC. Time now 2014-Oct-22 04:55 UTC.
Position N 34°24' W 007°50'.

Length 142 m; draft 7.3 m.

Type: Ship (hazmat cat A). MMSI: 212740000.

Date/timePositionNaut miles runAvg speedWind from/ knotsBaromVisibWave heightAir tempDewpointWater temp
2014-Oct-19 21:32N 34°24' W 007°50'1717.2
2014-Oct-19 20:33N 34°36' W 007°36'1717.0
2014-Oct-19 19:33N 34°48' W 007°21'11716.6
2014-Oct-19 12:33N 35°59' W 005°28'9 8.6
2014-Oct-19 11:33N 35°54' W 005°19'0 0.0
2014-Oct-19 10:33N 35°54' W 005°19'0 0.0
2014-Oct-19 09:33N 35°54' W 005°19'0 0.0
2014-Oct-19 08:33N 35°54' W 005°19'0 0.0
2014-Oct-19 07:33N 35°54' W 005°19'0 0.0
2014-Oct-19 06:33N 35°54' W 005°19'4 3.9
2014-Oct-19 05:34N 35°58' W 005°18'21216.1
2014-Oct-18 16:22N 37°09' W 001°09'1418.1
2014-Oct-18 15:34N 37°19' W 000°56'1918.2
2014-Oct-18 14:33N 37°31' W 000°38'1717.6
2014-Oct-18 13:33N 37°47' W 000°29'1818.0
2014-Oct-18 12:33N 38°05' W 000°24'16 1.1
2014-Oct-17 22:27N 38°20' W 000°30'8 8.6
2014-Oct-17 21:33N 38°13' W 000°25'1716.9
2014-Oct-17 20:33N 37°56' W 000°26'1717.0
2014-Oct-17 19:33N 37°40' W 000°29'1616.2
2014-Oct-17 18:33N 37°26' W 000°40'1916.8
2014-Oct-17 17:24N 37°13' W 000°59'1516.9
2014-Oct-17 16:32N 37°04' W 001°13'20317.0
2014-Oct-17 04:34N 35°60' W 005°12'  
2014-Oct-11 14:10N 37°13' W 001°04'1116.7
2014-Oct-11 13:31N 37°20' W 000°53'1817.0
2014-Oct-11 12:29N 37°32' W 000°37'1516.3
2014-Oct-11 11:33N 37°46' W 000°30'1716.8
2014-Oct-11 10:31N 38°03' W 000°25'17 0.9
2014-Oct-10 14:33N 38°20' W 000°30'5 5.1
2014-Oct-10 13:33N 38°15' W 000°26'1414.6
2014-Oct-10 12:33N 38°01' W 000°24'1615.9
2014-Oct-10 11:33N 37°45' W 000°28'1515.0
2014-Oct-10 10:33N 37°31' W 000°34'1615.6
2014-Oct-10 09:31N 37°21' W 000°49'1515.6
2014-Oct-10 08:32N 37°10' W 001°03'4117.1
2014-Oct-10 06:07N 36°42' W 001°42'1017.1
2014-Oct-10 05:33N 36°36' W 001°51'  
Track history (hours):
 
Tides and Currents Weather Stations Pressure Air Temp Water Temp Dewpoint Dewpoint Depression Visibility Wind Speed Wind Dir Waves Ship Positions

Neuburg

Last reported at 2014-Oct-19 21:32 UTC. Time now 2014-Oct-22 04:55 UTC.
Position N 34°24' W 007°50'.

Length 142 m; draft 7.3 m.

Type: Ship (hazmat cat A). MMSI: 212740000.

Date/timePositionNaut miles runAvg speedWind from/ knotsBaromVisibWave heightAir tempDewpointWater temp
2014-Oct-19 21:32N 34°24' W 007°50'1717.2
2014-Oct-19 20:33N 34°36' W 007°36'1717.0
2014-Oct-19 19:33N 34°48' W 007°21'11716.6
2014-Oct-19 12:33N 35°59' W 005°28'9 8.6
2014-Oct-19 11:33N 35°54' W 005°19'0 0.0
2014-Oct-19 10:33N 35°54' W 005°19'0 0.0
2014-Oct-19 09:33N 35°54' W 005°19'0 0.0
2014-Oct-19 08:33N 35°54' W 005°19'0 0.0
2014-Oct-19 07:33N 35°54' W 005°19'0 0.0
2014-Oct-19 06:33N 35°54' W 005°19'4 3.9
2014-Oct-19 05:34N 35°58' W 005°18'21216.1
2014-Oct-18 16:22N 37°09' W 001°09'1418.1
2014-Oct-18 15:34N 37°19' W 000°56'1918.2
2014-Oct-18 14:33N 37°31' W 000°38'1717.6
2014-Oct-18 13:33N 37°47' W 000°29'1818.0
2014-Oct-18 12:33N 38°05' W 000°24'16 1.1
2014-Oct-17 22:27N 38°20' W 000°30'8 8.6
2014-Oct-17 21:33N 38°13' W 000°25'1716.9
2014-Oct-17 20:33N 37°56' W 000°26'1717.0
2014-Oct-17 19:33N 37°40' W 000°29'1616.2
2014-Oct-17 18:33N 37°26' W 000°40'1916.8
2014-Oct-17 17:24N 37°13' W 000°59'1516.9
2014-Oct-17 16:32N 37°04' W 001°13'20317.0
2014-Oct-17 04:34N 35°60' W 005°12'  
2014-Oct-11 14:10N 37°13' W 001°04'1116.7
2014-Oct-11 13:31N 37°20' W 000°53'1817.0
2014-Oct-11 12:29N 37°32' W 000°37'1516.3
2014-Oct-11 11:33N 37°46' W 000°30'1716.8
2014-Oct-11 10:31N 38°03' W 000°25'17 0.9
2014-Oct-10 14:33N 38°20' W 000°30'5 5.1
2014-Oct-10 13:33N 38°15' W 000°26'1414.6
2014-Oct-10 12:33N 38°01' W 000°24'1615.9
2014-Oct-10 11:33N 37°45' W 000°28'1515.0
2014-Oct-10 10:33N 37°31' W 000°34'1615.6
2014-Oct-10 09:31N 37°21' W 000°49'1515.6
2014-Oct-10 08:32N 37°10' W 001°03'4117.1
2014-Oct-10 06:07N 36°42' W 001°42'1017.1
2014-Oct-10 05:33N 36°36' W 001°51'  

Dump ship's entire track history